SCP
1 1 0 0 0 0 0 0 0 0 0 0 0 0 0 0 0 0 0 0 0 1 1 1 1 1 1 1 0 0 0 0 0 0 0 0 0 0 0 0 0 0 0
0 0 0 0 0 0 0 0 0 0 0 0 0 0 0 0 0 0 0 0 0 1 1 1 1 1 1 1 1 0 0 0 0 0 0 0 0 0 0 0 0 0 0
0 0 0 0 0 0 0 0 0 0 0 0 0 0 0 0 0 0 0 0 0 0 1 1 1 1 1 1 1 1 0 0 0 0 0 0 0 0 0 0 0 0 0
0 0 0 0 0 0 0 0 0 0 0 0 0 0 0 0 0 0 0 0 0 0 1 1 1 1 1 1 1 1 1 1 1 0 0 0 0 0 0 0 0 0 0
0 0 0 0 0 0 0 0 0 0 0 0 0 0 0 0 0 0 0 0 0 0 0 1 1 1 1 1 1 1 1 1 1 1 1 1 0 0 0 0 0 0 0
0 0 0 0 0 0 0 0 0 0 0 0 0 0 0 0 0 0 0 0 0 0 0 0 1 1 1 1 1 1 1 1 1 1 1 1 1 1 1 1 0 0 0
0 0 0 0 0 0 0 0 0 0 0 0 0 0 0 0 0 0 0 0 0 0 0 0 1 1 1 1 1 1 2 2 2 2 1 1 1 1 1 1 1 1 1
0 0 0 0 0 0 0 0 0 0 0 0 0 0 0 0 0 0 0 0 0 0 0 0 1 1 1 1 1 1 2 2 2 2 2 2 1 1 1 1 1 1 1
1 0 0 0 0 0 0 0 0 0 0 0 0 0 0 0 0 0 0 0 0 0 0 0 1 1 1 1 1 1 2 2 3 3 3 3 2 1 1 1 1 1 1
1 1 1 0 0 0 0 0 0 0 0 0 0 0 0 0 0 0 0 0 0 0 0 1 1 1 1 1 1 1 1 2 2 3 3 3 2 2 1 1 1 1 1
1 1 1 1 1 0 0 0 0 0 0 0 0 0 0 0 0 0 0 0 0 0 1 1 1 1 1 1 1 1 1 1 1 2 2 2 2 2 2 2 2 1 1
2 1 1 1 1 1 0 0 0 1 0 0 0 0 0 0 0 0 0 0 0 0 0 0 1 1 1 1 1 1 1 1 1 1 1 1 2 2 2 2 2 2 1
2 1 1 1 1 1 1 1 1 0 0 0 0 0 0 0 0 0 0 0 0 0 0 0 0 0 0 1 1 1 1 1 1 1 1 1 1 1 1 2 2 2 1
2 1 1 1 1 1 1 1 1 0 0 0 0 0 0 0 0 0 0 0 0 0 0 0 0 0 0 0 1 1 1 1 1 0 0 0 0 1 1 1 1 1 1
2 1 1 1 1 1 1 1 1 0 0 0 0 0 0 0 0 0 0 0 0 0 0 0 0 0 0 0 0 1 1 1 1 0 0 0 0 0 0 0 1 1 1
1 1 1 1 1 1 1 1 1 0 0 0 0 0 0 0 0 0 0 0 0 0 0 0 0 0 0 0 0 1 1 1 1 0 0 0 0 0 0 0 0 0 0
1 1 1 1 1 1 1 1 1 0 0 0 0 0 0 0 0 0 0 0 0 0 0 0 0 0 0 0 0 1 1 1 0 0 0 0 0 0 0 0 0 0 0
2 2 2 1 1 1 1 1 1 1 0 0 0 0 0 0 0 0 0 0 0 0 0 0 0 0 0 0 0 1 1 1 1 0 0 0 0 0 0 0 0 0 0
2 2 2 2 2 1 1 1 1 1 0 0 0 0 0 0 1 1 1 1 1 0 0 0 0 0 0 0 1 1 1 1 1 1 0 0 0 0 0 0 0 0 0
1 1 1 1 1 1 1 1 1 1 0 0 0 0 0 0 0 1 1 1 1 1 0 0 0 0 0 1 1 1 1 1 1 1 1 0 0 0 0 0 0 0 0
1 1 1 1 1 1 1 1 1 1 0 0 0 0 0 0 0 0 0 1 1 0 0 1 1 1 1 1 1 1 1 1 1 1 1 0 0 0 0 0 0 0 0
1 1 1 1 0 1 1 1 1 1 0 0 0 0 0 0 0 0 0 0 0 0 0 0 0 1 1 1 1 1 1 1 1 1 1 0 0 0 0 0 0 0 0
1 1 1 1 1 0 0 0 0 1 0 0 0 0 0 0 0 0 0 0 0 0 0 0 0 0 0 0 0 0 0 0 0 0 0 0 0 0 0 0 0 0 0
2 2 2 1 1 1 0 0 0 0 0 0 0 0 0 0 0 0 0 0 0 0 0 0 0 0 0 0 0 0 0 0 0 0 0 0 0 0 0 0 0 0 0
2 2 2 2 2 1 1 0 0 0 0 0 0 0 0 0 0 0 0 0 0 0 0 0 0 0 0 0 0 0 0 0 0 0 0 0 0 0 0 0 0 0 0
3 3 3 3 3 2 1 0 0 0 0 0 0 0 0 0 0 0 0 0 0 0 0 0 0 0 0 0 0 0 0 0 0 0 0 0 0 0 0 0 0 0 0
Wind_Speed
4 3 2 2 2 2 2 2 2 1 1 1 2 4 5 5 4 4 3 10 10 10 11 11 11 10 10 10 9 9 9 8 7 7 7 7 7 7 7 6 6 6 5
4 4 3 3 2 3 3 3 3 2 1 1 2 3 5 5 5 4 3 6 10 10 10 11 10 10 10 10 10 9 9 9 8 7 6 7 7 7 7 7 6 6 5
5 4 4 3 3 3 3 2 2 1 1 1 2 3 4 4 5 5 5 3 4 9 10 10 10 10 11 11 11 10 9 9 8 8 7 6 6 7 7 7 7 6 6
6 4 4 3 3 3 3 2 2 2 1 1 1 2 2 3 5 5 5 4 4 4 7 11 11 11 11 12 11 11 10 10 9 9 8 8 8 7 7 7 7 7 7
5 4 3 3 3 3 2 2 2 2 2 2 2 2 2 3 4 5 5 6 5 5 4 8 11 12 13 13 12 12 12 11 11 11 10 10 10 9 8 8 8 8 8
5 4 3 3 3 3 2 2 2 2 2 2 1 1 2 2 3 4 5 5 5 7 6 6 6 8 13 12 12 12 13 12 12 12 12 11 11 10 9 9 9 9 9
5 4 3 3 3 3 4 4 3 2 1 2 1 1 2 2 2 3 3 4 5 6 6 6 5 4 5 10 11 12 13 13 13 13 12 12 11 10 10 10 10 10 10
5 5 4 4 4 3 3 3 3 2 1 2 3 1 2 3 2 2 3 4 5 4 5 7 5 5 4 3 6 12 13 13 13 13 12 11 10 10 10 10 10 10 9
5 4 5 4 4 4 3 4 4 4 3 2 2 4 3 3 2 2 2 3 3 3 4 4 6 6 6 4 4 8 12 12 12 12 11 10 10 9 10 10 10 9 8
4 4 5 5 4 4 4 4 4 3 4 2 1 2 3 4 3 1 2 1 1 2 3 3 4 4 4 3 4 6 9 11 11 11 10 10 9 9 9 9 9 9 9
3 4 4 4 4 4 4 4 3 3 3 3 3 2 1 1 2 2 2 2 1 1 1 2 2 2 3 3 3 5 7 9 9 9 8 8 8 8 8 9 9 8 8
2 3 4 4 4 4 4 4 4 4 4 3 3 3 3 2 3 3 3 2 1 1 1 0 1 2 2 2 4 5 6 6 6 7 7 6 6 7 6 6 6 7 7
2 3 4 4 4 4 4 4 4 4 4 4 4 3 3 3 3 3 3 2 2 1 1 1 0 1 1 1 1 3 4 5 5 5 5 4 4 4 4 4 4 3 3
3 3 3 3 3 4 4 3 3 3 3 3 4 3 2 2 2 3 3 3 1 1 1 1 1 0 1 1 2 3 2 4 5 5 5 5 5 4 4 4 4 3 3
2 2 2 2 2 3 3 3 2 2 2 2 2 2 2 1 1 2 2 3 4 2 2 2 1 0 0 1 2 2 2 4 5 5 6 6 6 5 5 5 4 4 4
1 2 2 2 2 1 2 2 2 1 2 1 1 1 1 1 0 0 1 2 2 3 2 2 1 1 1 2 3 3 3 6 6 6 6 6 6 6 5 5 5 5 5
2 2 2 2 2 2 2 2 2 2 2 1 1 1 0 0 0 0 0 1 1 2 3 1 1 1 2 2 3 3 3 3 3 7 8 7 7 6 7 7 6 6 5
2 2 2 3 3 2 2 3 3 2 2 2 1 1 1 1 1 1 0 0 1 2 3 3 1 1 1 2 3 3 3 3 3 6 8 8 8 8 7 7 7 6 6
3 3 3 3 3 2 2 2 3 3 2 2 2 2 1 2 1 1 1 0 0 1 2 3 2 1 1 2 2 2 3 2 3 4 6 7 7 7 7 7 7 7 6
4 3 3 3 3 3 2 3 3 3 3 3 2 2 2 2 1 1 1 1 1 2 3 3 2 1 1 1 2 2 2 2 2 3 4 4 5 6 7 6 6 6 5
4 3 3 3 3 3 2 3 3 4 4 4 3 3 4 5 5 3 2 2 3 3 3 3 2 2 1 1 1 1 2 2 2 1 2 2 2 2 2 3 5 6 5
3 4 3 3 3 2 4 6 5 4 4 4 3 3 4 5 7 8 8 7 5 4 3 2 2 2 1 1 1 2 2 2 1 0 2 1 1 1 0 0 2 4 4
4 4 3 3 3 3 6 6 7 4 4 3 3 3 3 4 5 4 7 10 9 8 5 3 3 2 1 1 2 2 2 2 1 1 2 1 0 0 1 0 2 2 3
4 3 3 3 3 4 6 7 7 5 5 4 3 3 3 3 3 4 5 6 6 6 4 3 3 2 2 2 3 3 4 3 2 2 2 2 0 1 1 1 1 2 2
4 3 3 4 4 3 5 7 7 4 4 3 3 3 3 3 5 6 6 6 5 4 6 8 7 6 6 6 5 4 3 3 2 1 1 2 1 0 0 1 2 3 3
4 4 4 3 4 3 4 7 7 4 4 2 2 3 4 4 5 6 5 5 4 2 3 4 5 6 5 6 6 3 3 3 2 0 1 1 1 1 1 1 1 1 2
Wind_Direction
161 165 171 178 190 191 189 193 200 202 213 183 143 139 142 145 150 153 161 168 168 169 170 170 171 172 170 169 171 171 171 171 171 171 170 168 167 169 169 167 167 166 164
163 166 174 183 197 198 192 179 178 177 182 161 141 144 151 154 158 163 168 177 179 178 180 180 180 180 181 181 182 182 182 182 182 182 182 180 181 184 184 184 183 183 180
162 162 168 180 192 191 175 155 162 151 169 164 161 159 157 165 169 172 174 178 184 190 190 191 190 190 191 192 193 193 192 191 190 190 193 194 196 197 195 192 194 194 191
162 157 165 180 182 169 157 150 152 145 161 166 173 185 169 170 178 182 184 186 189 195 201 201 200 200 201 203 202 201 200 201 199 200 202 204 206 203 202 203 203 201 200
163 157 170 180 169 159 160 172 151 157 165 183 190 192 196 187 187 191 195 197 198 199 200 209 209 208 210 211 211 209 208 209 208 209 212 213 213 210 210 212 211 210 210
164 157 167 175 160 153 164 165 167 174 175 181 202 205 224 215 200 198 201 199 203 206 203 209 210 218 219 220 219 218 217 216 215 217 218 219 219 215 215 216 217 217 218
170 162 164 168 165 167 179 175 167 179 190 149 100 353 324 274 225 216 204 195 204 208 203 206 206 209 221 225 224 222 223 222 220 220 221 223 224 221 218 218 219 220 222
178 176 170 176 177 168 173 179 164 157 199 162 144 118 345 337 314 245 212 203 209 206 211 213 211 210 216 215 224 226 227 227 225 223 223 223 224 221 220 220 221 221 222
189 183 179 177 180 175 184 193 181 170 189 217 172 153 162 223 289 316 251 215 205 204 212 215 210 212 213 213 222 229 227 227 226 225 222 221 221 221 221 219 219 219 219
191 187 184 182 185 184 189 200 191 181 171 199 219 199 181 167 164 294 319 293 232 214 210 210 208 206 207 206 211 213 220 221 222 226 225 219 216 216 216 215 216 218 219
193 193 189 186 188 191 194 199 187 182 181 186 192 191 188 177 170 166 249 297 321 291 224 200 193 191 207 208 211 211 213 214 214 216 218 216 213 212 213 215 218 219 219
200 207 201 196 197 196 198 199 194 190 192 189 189 184 181 182 193 182 204 231 248 292 308 229 175 191 201 197 199 193 192 197 201 203 207 210 207 202 205 210 216 221 223
208 218 212 205 204 204 201 196 193 199 192 188 194 196 198 204 189 174 177 205 217 246 291 330 248 199 177 148 172 173 177 175 179 183 186 190 185 175 178 182 187 194 199
208 208 204 206 202 196 200 190 188 197 185 193 204 198 198 214 196 184 178 172 197 251 234 238 4 61 111 123 131 144 122 144 159 163 164 165 161 156 154 152 148 147 146
199 188 185 181 183 176 172 161 162 184 169 185 197 197 204 229 206 200 185 172 171 204 238 214 187 92 117 107 127 128 126 127 136 143 150 154 150 144 141 137 132 124 114
169 152 154 152 147 146 152 147 145 153 136 161 171 158 183 229 224 192 179 176 173 180 212 210 188 168 138 114 103 96 100 106 111 127 135 136 134 129 124 119 116 110 106
149 145 150 135 122 120 128 125 129 128 131 131 118 129 146 118 135 273 171 172 180 167 195 215 141 134 127 122 97 89 89 88 100 114 118 117 117 119 118 114 108 103 100
137 127 116 106 111 113 118 128 138 123 125 118 100 87 56 56 44 25 49 131 184 177 169 180 163 150 142 141 128 118 112 111 99 105 111 112 110 108 108 108 106 102 98
104 93 95 101 102 102 106 111 118 111 112 111 106 106 92 83 56 25 51 62 170 123 133 146 148 129 108 127 114 106 102 87 107 110 114 113 115 113 109 107 104 98 95
100 91 89 93 97 91 90 96 101 100 94 81 73 75 72 84 78 67 66 81 109 105 106 118 120 101 88 105 106 109 93 69 87 93 92 101 107 108 108 110 106 103 99
101 101 94 84 80 88 92 106 106 106 98 85 65 57 61 74 72 72 76 83 104 107 106 108 110 91 83 112 144 145 124 105 58 72 90 81 77 66 82 111 117 118 115
93 92 92 92 81 83 101 107 111 108 106 101 84 63 59 56 65 69 75 79 95 115 125 119 115 124 145 153 128 130 131 129 117 11 112 105 97 93 340 200 153 144 139
95 88 87 96 95 95 110 109 105 109 104 97 94 84 75 67 65 69 67 65 61 66 90 126 124 138 150 183 145 122 120 115 133 178 125 116 100 204 257 190 181 179 170
105 100 94 101 96 87 107 113 110 103 95 91 90 95 98 81 80 89 81 69 58 46 57 83 112 115 114 129 138 142 135 108 76 46 92 125 175 246 281 295 233 203 206
106 97 91 97 99 89 106 115 115 103 94 82 73 75 93 90 89 97 94 86 69 47 56 72 79 80 84 88 101 104 103 99 73 8 15 112 146 223 317 295 269 237 240
116 111 97 85 92 92 109 118 119 112 105 92 64 56 73 96 100 103 104 105 95 60 51 50 50 49 56 64 71 98 132 126 120 127 298 117 115 105 34 307 290 273 266